Powrót do katalogu

FENGYUN 1C DEB

AktywnyPO
NORAD 31937·DEBRIS·🇨🇳 China

Wystrzelony May 10, 1999 z Taiyuan Satellite Launch Center

Loading…

Następne Przeloty (najbliższe 24 godziny)

TLE

Starzejące sięSource: Space-Track

Epoka: Sep 5, 2026, 04:04 UTC

1 31937U 99025CMN 26248.16983616  .00005335  00000-0  55435-3 0  9991
2 31937  99.2700  23.5153 0153036 184.5686 175.4136 14.82146439700115

Śledź FENGYUN 1C DEB w czasie rzeczywistym z AllMySat

Download on the App Store